Location: Edisto_Beach
(32.4790°N, 80.3350°W)
Time: 09:40:49
(UTC-05:00)

Amateur Radio Satellites - All Passes

Search period start: 14 February 2016 09:10
Search period end: 15 February 2016 09:10
Location: Edisto_Beach, 32.4790°N, 80.3350°W

Satellite Date Start Highest point End Downlink Frequencies (MHz)
Time Altitude Azimuth
SRMSAT 14 Feb 09:19:41 09:24:10 22° 175° (S) 09:28:39 437.500
UNISAT 6 14 Feb 09:20:38 09:24:00 23° 71° (ENE) 09:27:21 437.425
JUGNU 14 Feb 09:22:55 09:27:22 22° 187° (S) 09:31:47 437.505
CINEMA 3 14 Feb 09:25:37 09:29:16 30° 287° (WNW) 09:32:58 145.822/145.860
COMPASS 1 14 Feb 09:27:54 09:31:54 42° 286° (WNW) 09:35:53 437.405
ZACube-1 14 Feb 09:32:25 09:36:33 46° 100° (E) 09:40:45 437.345
AIST 1 14 Feb 09:37:21 09:41:06 28° 90° (E) 09:44:52
FUNcube-1 14 Feb 09:38:49 09:43:01 53° 100° (E) 09:47:17 145.935
SEEDS 14 Feb 09:52:04 09:54:48 17° 291° (WNW) 09:57:33 437.485
AAUSAT CUBESAT 2 14 Feb 09:52:11 09:55:43 27° 288° (WNW) 09:59:16 437.432
CUTE 1.7 + AOD 2 14 Feb 09:55:27 09:57:05 12° 293° (WNW) 09:58:43 437.475
Oscar 11 14 Feb 10:04:25 10:08:39 52° 285° (WNW) 10:12:53 145.826/435.025
ANTELSAT 14 Feb 10:04:29 10:08:47 80° 77° (ENE) 10:13:04 437.575/2403.000
TIGRISAT 14 Feb 10:09:38 10:13:56 88° 75° (ENE) 10:18:13 435.000
POLYITAN 1 14 Feb 10:11:15 10:14:16 19° 70° (ENE) 10:17:17 437.675
QB50P2 14 Feb 10:11:33 10:14:39 20° 70° (ENE) 10:17:45 145.880/145.840
Cosmos 2499 14 Feb 10:19:26 10:27:55 55° 280° (W) 10:36:36 435.465 / 435.565
UWE-3 14 Feb 10:26:21 10:29:52 25° 288° (WNW) 10:33:28 435.000/436.395/437.385
DELFI C3 14 Feb 10:26:41 10:30:37 51° 285° (WNW) 10:34:32 145.870
GONETS M04 14 Feb 10:32:25 10:38:26 20° 290° (WNW) 10:44:30
CUBEBUG 2 14 Feb 10:37:15 10:39:30 14° 291° (WNW) 10:41:46 437.445
PCSat 14 Feb 10:37:54 10:42:44 33° 302° (WNW) 10:47:36 145.827
POPSAT HIP 1 14 Feb 10:39:00 10:42:58 40° 74° (ENE) 10:46:56 437.405
HO-68 14 Feb 10:39:03 10:42:36 15° 301° (WNW) 10:46:10 435.675
DUCHIFAT 1 14 Feb 10:39:45 10:43:39 38° 74° (ENE) 10:47:33 145.980
NANOSAT C BR1 14 Feb 10:40:31 10:44:29 41° 74° (ENE) 10:48:27 145.865
HUMSAT D 14 Feb 10:44:26 10:48:40 86° 283° (WNW) 10:52:55 437.325/437.525
AO-85 14 Feb 10:46:15 10:49:21 15° 313° (NW) 10:52:29 145.980
QB50P1 14 Feb 10:50:56 10:55:06 59° 76° (ENE) 10:59:16 145.935-145.965
UNISAT 6 14 Feb 10:57:11 11:00:36 23° 264° (W) 11:04:00 437.425
ESTCUBE 1 14 Feb 10:59:47 11:03:31 25° 96° (E) 11:07:12 437.505/2401.250
RS-15 14 Feb 11:00:17 11:11:21 90° 53° (NE) 11:23:01 29.354- 29.394
SRMSAT 14 Feb 11:08:15 11:12:45 23° 185° (S) 11:17:16 437.500
ZACube-1 14 Feb 11:10:45 11:12:26 12° 292° (WNW) 11:14:06 437.345
JUGNU 14 Feb 11:13:01 11:15:43 13° 196° (SSW) 11:18:24 437.505
50 SAT 14 Feb 11:14:19 11:17:54 38° 99° (E) 11:21:28 437.505
AIST 1 14 Feb 11:15:39 11:18:40 18° 284° (WNW) 11:21:43
FUNcube-1 14 Feb 11:17:53 11:18:48 11° 293° (WNW) 11:19:42 145.935
BUGSAT 1 14 Feb 11:19:45 11:23:53 61° 76° (ENE) 11:27:59 437.445
JAS-2 14 Feb 11:33:04 11:34:54 11° 61° (ENE) 11:36:42 435.910
VELOX 1 14 Feb 11:36:16 11:40:37 57° 101° (E) 11:44:55 145.980
UKube-1 14 Feb 11:38:55 11:43:10 55° 101° (E) 11:47:22 .
SPROUT 14 Feb 11:40:44 11:43:29 17° 95° (E) 11:46:13 437.525
POLYITAN 1 14 Feb 11:46:19 11:49:53 26° 263° (W) 11:53:28 437.675
QB50P2 14 Feb 11:46:45 11:50:17 25° 263° (W) 11:53:48 145.880/145.840
AISAT 14 Feb 11:53:49 11:58:13 81° 285° (WNW) 12:02:36 437.250
CUBEBUG 1 14 Feb 11:58:54 12:03:16 88° 280° (W) 12:07:35 437.445
DX 1 14 Feb 11:59:56 12:04:14 66° 285° (WNW) 12:08:31 434.975-435.025
DANDE 14 Feb 12:16:36 12:21:27 25° 69° (ENE) 12:25:20 436.750
POPSAT HIP 1 14 Feb 12:17:09 12:18:53 12° 266° (W) 12:20:37 437.405
DUCHIFAT 1 14 Feb 12:17:32 12:19:28 13° 266° (W) 12:21:25 145.980
NANOSAT C BR1 14 Feb 12:18:44 12:20:22 12° 266° (W) 12:22:00 145.865
Gurwin Techsat 1B 14 Feb 12:26:52 12:28:33 11° 63° (ENE) 12:30:14 435.225
ESTCUBE 1 14 Feb 12:36:33 12:40:11 24° 290° (WNW) 12:43:48 437.505/2401.250
SO-50 14 Feb 12:37:53 12:42:11 32° 55° (NE) 12:46:19 436.795
CUSAT 1 14 Feb 12:42:53 12:47:42 81° 264° (W) 12:51:17 437.405
50 SAT 14 Feb 12:50:26 12:51:30 11° 292° (WNW) 12:52:35 437.505
Oscar 19 14 Feb 12:50:40 12:55:46 61° 74° (ENE) 13:00:52 437.125/150
SRMSAT 14 Feb 12:58:03 13:01:17 15° 194° (SSW) 13:04:32 437.500
TISAT 1 14 Feb 13:04:52 13:09:00 61° 101° (E) 13:13:06 437.305
JAS-2 14 Feb 13:11:22 13:19:00 75° 75° (ENE) 13:25:57 435.910
SPROUT 14 Feb 13:15:43 13:19:28 30° 288° (WNW) 13:23:11 437.525
VELOX 1 14 Feb 13:15:56 13:16:32 10° 295° (WNW) 13:17:08 145.980
RS-15 14 Feb 13:16:45 13:25:29 25° 320° (NW) 13:34:36 29.354- 29.394
UKube-1 14 Feb 13:18:02 13:18:41 10° 294° (WNW) 13:19:21 .
YUBILEINY 14 Feb 13:22:47 13:30:35 34° 75° (ENE) 13:38:15 435.215
Cosmos 2491 14 Feb 13:26:54 13:32:30 19° 82° (E) 13:38:07 435.465 / 435.565
ISS 14 Feb 13:30:02 13:33:16 77° 134° (SE) 13:36:31 145.825
SWISSCUBE 14 Feb 13:53:49 13:58:17 37° 99° (E) 14:02:42 437.505
DANDE 14 Feb 13:59:33 14:04:18 26° 275° (W) 14:08:04 436.750
Gurwin Techsat 1B 14 Feb 14:02:31 14:07:48 74° 258° (WSW) 14:13:07 435.225
ITAMSAT 1 14 Feb 14:10:41 14:15:49 68° 75° (ENE) 14:21:00 435.822/435.867
SO-50 14 Feb 14:18:49 14:22:25 22° 251° (WSW) 14:25:55 436.795
ITUPSAT 1 14 Feb 14:33:07 14:37:58 88° 284° (WNW) 14:42:47 437.325
Oscar 19 14 Feb 14:33:22 14:35:23 12° 267° (W) 14:37:24 437.125/150
BEESAT 14 Feb 14:38:10 14:42:58 76° 285° (WNW) 14:47:45 436.000
KKS-1 14 Feb 14:55:35 14:58:38 18° 95° (E) 15:01:42 437.445
AO-7 14 Feb 14:56:09 15:04:19 61° 69° (ENE) 15:12:30 29.400- 29.500
JAS-2 14 Feb 14:59:37 15:04:14 17° 266° (W) 15:08:42 435.910
ISS 14 Feb 15:08:59 15:10:03 11° 330° (NNW) 15:11:08 145.825
HORYU 2 14 Feb 15:16:21 15:19:40 21° 69° (ENE) 15:22:58 437.375
M-CUBED/EXP-1 PRIME 14 Feb 15:18:54 15:22:07 31° 70° (ENE) 15:25:10 437.505
YUBILEINY 14 Feb 15:19:12 15:27:22 44° 272° (W) 15:35:30 435.215
Cosmos 2491 14 Feb 15:19:43 15:28:23 71° 277° (W) 15:37:05 435.465 / 435.565
AUBIESAT-1 14 Feb 15:24:03 15:27:11 29° 70° (ENE) 15:30:11 437.475
MOZHAYETS 4 14 Feb 15:26:45 15:29:41 17° 94° (E) 15:32:38
BEESAT 3 14 Feb 15:29:23 15:33:15 52° 115° (ESE) 15:37:08 437.485
Cosmos 2504 14 Feb 15:32:04 15:40:07 48° 78° (ENE) 15:47:34 435.465 / 435.565
SWISSCUBE 14 Feb 15:32:29 15:35:45 18° 292° (WNW) 15:39:01 437.505
ITAMSAT 1 14 Feb 15:54:31 15:55:40 11° 268° (W) 15:56:48 435.822/435.867
STARS 14 Feb 15:59:55 16:04:12 55° 101° (E) 16:08:29 437.465
BEESAT 2 14 Feb 16:02:57 16:06:57 84° 115° (ESE) 16:10:59 435.950
CUTE-I 14 Feb 16:30:58 16:32:04 11° 63° (ENE) 16:33:12 437.470
KKS-1 14 Feb 16:31:20 16:35:13 30° 288° (WNW) 16:39:04 437.445
Cubesat XI-IV 14 Feb 16:44:17 16:47:19 15° 65° (ENE) 16:50:21 437.490
O/OREOS (USA 219) 14 Feb 16:46:15 16:50:21 31° 66° (ENE) 16:54:26 437.305
AO-7 14 Feb 16:50:54 16:57:23 25° 263° (W) 17:03:55 29.400- 29.500
HORYU 2 14 Feb 16:52:19 16:56:02 27° 263° (W) 16:59:47 437.375
M-CUBED/EXP-1 PRIME 14 Feb 16:56:05 16:56:46 10° 260° (W) 16:57:27 437.505
AUBIESAT-1 14 Feb 17:00:37 17:01:45 11° 260° (W) 17:02:53 437.475
BRITE-PL 14 Feb 17:01:17 17:03:34 13° 66° (ENE) 17:05:48 437.365/2234.400
AIST 2 14 Feb 17:01:59 17:05:37 30° 112° (ESE) 17:09:16 435.215
MOZHAYETS 4 14 Feb 17:02:39 17:06:55 37° 287° (WNW) 17:11:11
BEESAT 3 14 Feb 17:09:54 17:11:16 11° 310° (NW) 17:12:39 437.485
LilacSat-2 14 Feb 17:15:17 17:17:59 19° 71° (ENE) 17:20:42 437.200
Cosmos 2504 14 Feb 17:26:16 17:32:57 28° 276° (W) 17:39:16 435.465 / 435.565
STARS 14 Feb 17:39:15 17:40:02 10° 294° (WNW) 17:40:50 437.465
GOMX 1 14 Feb 17:39:31 17:42:16 14° 68° (ENE) 17:44:56 467.674
AO-85 14 Feb 17:40:45 17:44:32 21° 50° (NE) 17:48:06 145.980
RS-15 14 Feb 17:56:16 18:04:36 20° 35° (NE) 18:12:59 29.354- 29.394
CUBESAT XI-V 14 Feb 17:57:31 18:02:14 77° 102° (ESE) 18:06:52 437.345
CUTE-I 14 Feb 18:06:03 18:11:22 79° 257° (WSW) 18:16:44 437.470
Cubesat XI-IV 14 Feb 18:21:40 18:26:51 55° 259° (W) 18:32:06 437.490
O/OREOS (USA 219) 14 Feb 18:26:15 18:29:29 19° 259° (W) 18:32:42 437.305
DOVE 4 14 Feb 18:30:31 18:34:26 23° 71° (ENE) 18:38:12 437.250
BRITE-PL 14 Feb 18:35:42 18:41:23 76° 259° (WSW) 18:46:55 437.365/2234.400
AIST 2 14 Feb 18:41:03 18:44:07 20° 306° (NW) 18:47:11 435.215
GONETS M04 14 Feb 18:49:12 18:56:24 27° 73° (ENE) 19:03:34
LilacSat-2 14 Feb 18:49:13 18:52:09 21° 264° (W) 18:55:06 437.200
SEEDS 14 Feb 19:04:45 19:06:34 13° 68° (ENE) 19:08:23 437.485
CUTE 1.7 + AOD 2 14 Feb 19:06:42 19:09:38 19° 70° (ENE) 19:12:35 437.475
STRAND 1 14 Feb 19:09:10 19:14:09 47° 100° (E) 19:19:05 437.568
HO-68 14 Feb 19:12:12 19:18:49 42° 68° (ENE) 19:25:28 435.675
GOMX 1 14 Feb 19:14:33 19:19:52 59° 260° (W) 19:24:56 467.674
AO-85 14 Feb 19:20:39 19:25:13 39° 248° (WSW) 19:29:23 145.980
PCSat 14 Feb 19:29:36 19:35:03 75° 64° (ENE) 19:40:27 145.827
CANX-2 14 Feb 19:51:18 19:55:29 79° 76° (ENE) 19:59:43 2200.000
CUBEBUG 2 14 Feb 19:53:57 19:56:54 18° 71° (ENE) 19:59:49 437.445
ISS 14 Feb 20:02:38 20:04:03 12° 31° (NNE) 20:05:28 145.825
DOVE 4 14 Feb 20:07:30 20:11:56 30° 262° (W) 20:16:11 437.250
RS-15 14 Feb 20:07:31 20:19:45 70° 60° (ENE) 20:32:01 29.354- 29.394
COMPASS 1 14 Feb 20:13:41 20:17:47 67° 76° (ENE) 20:21:56 437.405
Cosmos 2499 14 Feb 20:17:25 20:25:03 43° 77° (ENE) 20:32:06 435.465 / 435.565
CINEMA 3 14 Feb 20:21:55 20:26:28 61° 259° (W) 20:30:49 145.822/145.860
PRISM 14 Feb 20:22:22 20:26:32 87° 283° (WNW) 20:30:39 437.425
ZACube-1 14 Feb 20:24:46 20:27:49 20° 71° (ENE) 20:30:51 437.345
FUNcube-1 14 Feb 20:30:43 20:33:58 22° 71° (ENE) 20:37:11 145.935
AAUSAT CUBESAT 2 14 Feb 20:37:04 20:41:10 76° 258° (WSW) 20:45:21 437.432
SEEDS 14 Feb 20:37:56 20:41:52 41° 261° (W) 20:45:51 437.485
CUTE 1.7 + AOD 2 14 Feb 20:41:39 20:45:15 27° 263° (W) 20:48:52 437.475
PHONESAT 2.4 14 Feb 20:42:52 20:43:19 10° 139° (SE) 20:43:47 2401.200-2431.200
GONETS M04 14 Feb 20:45:01 20:53:31 55° 270° (W) 21:02:01
STRAND 1 14 Feb 20:49:38 20:52:53 17° 294° (WNW) 20:56:07 437.568
Oscar 11 14 Feb 20:54:12 20:58:26 64° 76° (ENE) 21:02:42 145.826/435.025
HO-68 14 Feb 21:00:22 21:06:31 31° 262° (W) 21:12:43 435.675
DELFI C3 14 Feb 21:08:12 21:11:59 45° 75° (ENE) 21:15:48 145.870
PCSat 14 Feb 21:16:48 21:17:42 10° 258° (WSW) 21:18:36 145.827
UWE-3 14 Feb 21:18:10 21:22:19 55° 260° (W) 21:26:25 435.000/436.395/437.385
AIST 1 14 Feb 21:25:53 21:30:11 70° 83° (E) 21:34:26
CUBEBUG 2 14 Feb 21:29:39 21:33:19 28° 262° (W) 21:36:57 437.445
HUMSAT D 14 Feb 21:31:34 21:35:13 33° 73° (ENE) 21:38:53 437.325/437.525
ISS 14 Feb 21:37:34 21:40:47 65° 226° (SW) 21:43:59 145.825
ESTCUBE 1 14 Feb 21:56:15 21:58:34 14° 67° (ENE) 22:00:54 437.505/2401.250
ZACube-1 14 Feb 22:00:30 22:03:57 24° 263° (W) 22:07:22 437.345
ANTELSAT 14 Feb 22:01:06 22:04:40 23° 97° (E) 22:08:16 437.575/2403.000
TIGRISAT 14 Feb 22:05:58 22:09:37 25° 97° (E) 22:13:20 435.000
FUNcube-1 14 Feb 22:06:52 22:10:06 22° 264° (W) 22:13:20 145.935
Cosmos 2499 14 Feb 22:11:06 22:17:45 30° 275° (W) 22:24:02 435.465 / 435.565
PHONESAT 2.4 14 Feb 22:16:52 22:20:08 78° 154° (SSE) 22:23:26 2401.200-2431.200
RS-15 14 Feb 22:21:27 22:31:14 29° 257° (WSW) 22:41:03 29.354- 29.394
VELOX 1 14 Feb 22:29:20 22:33:10 29° 71° (ENE) 22:37:00 145.980
UKube-1 14 Feb 22:29:24 22:32:59 26° 71° (ENE) 22:36:34 .
QB50P1 14 Feb 22:41:58 22:44:06 14° 94° (E) 22:46:13 145.935-145.965
AISAT 14 Feb 22:46:30 22:50:48 49° 74° (ENE) 22:55:06 437.250
CUBEBUG 1 14 Feb 22:50:10 22:54:20 42° 74° (ENE) 22:58:30 437.445
DX 1 14 Feb 22:50:34 22:54:52 57° 75° (ENE) 22:59:10 434.975-435.025
UNISAT 6 14 Feb 22:52:03 22:56:28 83° 285° (WNW) 23:00:58 437.425
BUGSAT 1 14 Feb 23:08:26 23:09:53 12° 94° (E) 23:11:20 437.445
HUMSAT D 14 Feb 23:08:49 23:10:55 14° 266° (W) 23:13:03 437.325/437.525
50 SAT 14 Feb 23:23:37 23:27:06 40° 261° (W) 23:30:37 437.505
ESTCUBE 1 14 Feb 23:30:38 23:34:56 44° 261° (W) 23:39:18 437.505/2401.250
POLYITAN 1 14 Feb 23:35:05 23:39:17 67° 102° (ESE) 23:43:28 437.675
QB50P2 14 Feb 23:35:26 23:39:39 71° 102° (ESE) 23:43:51 145.880/145.840
ANTELSAT 14 Feb 23:37:41 23:41:15 24° 289° (WNW) 23:44:53 437.575/2403.000
TIGRISAT 14 Feb 23:42:43 23:46:09 23° 289° (WNW) 23:49:38 435.000
TISAT 1 14 Feb 23:52:34 23:56:00 24° 71° (ENE) 23:59:25 437.305
PHONESAT 2.4 14 Feb 23:54:47 23:57:36 26° 347° (NNW) 00:00:25 2401.200-2431.200
CUSAT 1 14 Feb 23:56:54 00:02:42 22° 86° (E) 00:08:27 437.405
DUCHIFAT 1 15 Feb 00:03:47 00:07:53 57° 285° (WNW) 00:11:59 145.980
POPSAT HIP 1 15 Feb 00:03:49 00:07:54 53° 285° (WNW) 00:12:00 437.405
SPROUT 15 Feb 00:04:05 00:08:22 76° 258° (WSW) 00:12:40 437.525
NANOSAT C BR1 15 Feb 00:04:57 00:09:01 52° 285° (WNW) 00:13:05 145.865
UKube-1 15 Feb 00:05:40 00:08:57 21° 264° (W) 00:12:15 .
VELOX 1 15 Feb 00:06:21 00:09:37 20° 264° (W) 00:12:52 145.980
QB50P1 15 Feb 00:16:07 00:19:58 36° 287° (WNW) 00:23:50 145.935-145.965
AISAT 15 Feb 00:26:01 00:27:29 11° 267° (W) 00:28:58 437.250
BEESAT 2 15 Feb 00:27:14 00:29:04 13° 51° (NE) 00:30:52 435.950
CUBEBUG 1 15 Feb 00:28:36 00:30:45 13° 267° (W) 00:32:54 437.445
BUGSAT 1 15 Feb 00:41:40 00:45:23 37° 286° (WNW) 00:49:06 437.445
SWISSCUBE 15 Feb 00:56:12 01:00:07 26° 70° (ENE) 01:04:02 437.505
Oscar 19 15 Feb 01:07:19 01:11:49 31° 98° (E) 01:16:17 437.125/150
DANDE 15 Feb 01:15:07 01:22:41 53° 91° (E) 01:30:50 436.750
TISAT 1 15 Feb 01:28:23 01:31:34 21° 264° (W) 01:34:46 437.305
BEESAT 3 15 Feb 01:28:40 01:32:38 75° 242° (WSW) 01:36:31 437.485
PHONESAT 2.4 15 Feb 01:32:58 01:35:29 20° 4° (N) 01:37:59 2401.200-2431.200
ITUPSAT 1 15 Feb 01:35:09 01:39:51 62° 74° (ENE) 01:44:35 437.325
Cosmos 2491 15 Feb 01:35:54 01:44:17 48° 79° (E) 01:52:39 435.465 / 435.565
CUSAT 1 15 Feb 01:36:20 01:44:19 68° 279° (W) 01:52:14 437.405
BEESAT 15 Feb 01:39:47 01:44:31 73° 76° (ENE) 01:49:16 436.000
KKS-1 15 Feb 01:52:08 01:52:29 10° 65° (ENE) 01:52:50 437.445
BEESAT 2 15 Feb 02:03:22 02:07:10 45° 246° (WSW) 02:10:57 435.950
JAS-2 15 Feb 02:11:56 02:17:18 85° 287° (WNW) 02:22:28 435.910
YUBILEINY 15 Feb 02:17:27 02:25:36 45° 88° (E) 02:33:49 435.215
Gurwin Techsat 1B 15 Feb 02:23:25 02:28:43 66° 102° (ESE) 02:33:59 435.225
ITAMSAT 1 15 Feb 02:28:29 02:33:16 35° 98° (E) 02:38:00 435.822/435.867
SWISSCUBE 15 Feb 02:33:52 02:37:47 25° 263° (W) 02:41:44 437.505
Oscar 19 15 Feb 02:46:51 02:50:57 25° 291° (WNW) 02:55:02 437.125/150
SO-50 15 Feb 02:47:26 02:51:40 30° 111° (ESE) 02:55:58 436.795
STARS 15 Feb 02:52:26 02:56:09 27° 71° (ENE) 02:59:52 437.465
DANDE 15 Feb 02:58:59 03:05:53 31° 288° (WNW) 03:13:10 436.750
AO-7 15 Feb 03:04:03 03:10:38 25° 97° (E) 03:17:08 29.400- 29.500
AIST 2 15 Feb 03:05:23 03:09:29 68° 60° (ENE) 03:13:34 435.215
PHONESAT 2.4 15 Feb 03:10:05 03:13:12 41° 20° (NNE) 03:16:20 2401.200-2431.200
KKS-1 15 Feb 03:24:06 03:28:30 60° 259° (W) 03:32:54 437.445
CUSAT 1 15 Feb 03:25:26 03:27:40 11° 294° (WNW) 03:29:54 437.405
Cosmos 2491 15 Feb 03:33:22 03:40:40 31° 275° (W) 03:48:00 435.465 / 435.565
MOZHAYETS 4 15 Feb 03:59:21 04:03:53 68° 259° (W) 04:08:27
Cosmos 2504 15 Feb 04:03:02 04:11:07 47° 89° (E) 04:19:28 435.465 / 435.565
Gurwin Techsat 1B 15 Feb 04:05:44 04:08:02 13° 296° (WNW) 04:10:20 435.225
ITAMSAT 1 15 Feb 04:08:27 04:12:28 23° 292° (WNW) 04:16:29 435.822/435.867
YUBILEINY 15 Feb 04:14:46 04:22:25 33° 285° (WNW) 04:30:10 435.215
SO-50 15 Feb 04:27:59 04:32:07 27° 306° (NW) 04:36:18 436.795
STARS 15 Feb 04:29:13 04:32:27 20° 264° (W) 04:35:42 437.465
M-CUBED/EXP-1 PRIME 15 Feb 04:36:06 04:39:38 57° 106° (ESE) 04:43:27 437.505
AUBIESAT-1 15 Feb 04:40:38 04:44:12 52° 106° (ESE) 04:48:01 437.475
HORYU 2 15 Feb 04:46:55 04:51:23 80° 103° (ESE) 04:55:52 437.375
PHONESAT 2.4 15 Feb 04:47:29 04:50:23 30° 214° (SW) 04:53:16 2401.200-2431.200
AO-7 15 Feb 04:55:35 05:03:41 58° 292° (WNW) 05:11:44 29.400- 29.500
CUBESAT XI-V 15 Feb 04:56:06 05:00:31 43° 74° (ENE) 05:04:59 437.345
JUGNU 15 Feb 05:31:37 05:35:26 17° 168° (SSE) 05:39:14 437.505
Cosmos 2504 15 Feb 05:57:04 06:04:35 33° 285° (WNW) 06:12:23 435.465 / 435.565
STRAND 1 15 Feb 06:20:32 06:25:18 42° 72° (ENE) 06:30:08 437.568
LilacSat-2 15 Feb 06:26:13 06:29:56 53° 100° (E) 06:33:38 437.200
CUTE-I 15 Feb 06:27:50 06:33:10 62° 101° (ESE) 06:38:29 437.470
CUBESAT XI-V 15 Feb 06:35:29 06:38:04 15° 267° (W) 06:40:38 437.345
Cubesat XI-IV 15 Feb 06:43:25 06:48:50 88° 103° (ESE) 06:54:13 437.490
BRITE-PL 15 Feb 06:46:23 06:50:41 48° 99° (E) 06:54:45 437.365/2234.400
O/OREOS (USA 219) 15 Feb 06:53:23 06:57:51 87° 108° (ESE) 07:02:22 437.305
PRISM 15 Feb 07:07:26 07:11:12 34° 73° (ENE) 07:15:00 437.425
JUGNU 15 Feb 07:19:11 07:23:51 24° 178° (S) 07:28:29 437.505
SRMSAT 15 Feb 07:19:16 07:22:43 16° 166° (SSE) 07:26:09 437.500
GOMX 1 15 Feb 07:21:41 07:25:51 57° 100° (E) 07:29:55 467.674
CANX-2 15 Feb 07:41:49 07:44:56 19° 95° (E) 07:48:02 2200.000
GONETS M04 15 Feb 07:44:21 07:51:59 36° 87° (E) 07:59:39
AO-85 15 Feb 07:50:15 07:54:03 21° 107° (ESE) 07:57:59 145.980
STRAND 1 15 Feb 08:01:13 08:04:36 18° 265° (W) 08:08:01 437.568
COMPASS 1 15 Feb 08:02:34 08:05:05 15° 94° (E) 08:07:35 437.405
CUTE-I 15 Feb 08:09:55 08:12:38 14° 296° (WNW) 08:15:21 437.470
DOVE 4 15 Feb 08:10:39 08:14:48 74° 282° (WNW) 08:18:56 437.250
CINEMA 3 15 Feb 08:21:07 08:25:05 41° 99° (E) 08:29:08 145.822/145.860
RS-15 15 Feb 08:24:27 08:25:20 10° 96° (E) 08:26:13 29.354- 29.394
AAUSAT CUBESAT 2 15 Feb 08:24:40 08:28:02 23° 96° (E) 08:31:22 437.432
PCSat 15 Feb 08:25:13 08:28:52 19° 105° (ESE) 08:32:32 145.827
SEEDS 15 Feb 08:26:15 08:30:19 43° 99° (E) 08:34:22 437.485
BRITE-PL 15 Feb 08:27:20 08:28:37 11° 295° (WNW) 08:29:54 437.365/2234.400
CUTE 1.7 + AOD 2 15 Feb 08:30:22 08:34:40 69° 101° (E) 08:38:57 437.475
HO-68 15 Feb 08:31:48 08:38:59 68° 103° (ESE) 08:46:06 435.675
PRISM 15 Feb 08:44:18 08:46:35 14° 265° (W) 08:48:53 437.425
Cosmos 2499 15 Feb 08:46:33 08:54:34 42° 88° (E) 09:02:42 435.465 / 435.565
Oscar 11 15 Feb 08:47:08 08:49:57 17° 95° (E) 08:52:46 145.826/435.025
ANTELSAT 15 Feb 08:57:43 08:59:15 12° 67° (ENE) 09:00:46 437.575/2403.000
TIGRISAT 15 Feb 09:02:09 09:04:00 13° 68° (ENE) 09:05:50 435.000
